THY2472 LTFM-LTDB

Flight info

Callsign THY2472
Flight time 1h 13m
Altitude 39000
Route RATVU1D/35L RATVU UT35 UNEPI UT38 KETEK UR55 MUT UW74 MANAZ
Aircraft B772/H-SDE2E3FGHIJ5LORVWXY/LB1D1

Departure

Time 2026-04-18 10:13
Airport İstanbul Airport (LTFM)

Arrival

Time 2026-04-18 11:26
Airport Çukurova International Airport (LTDB)
Time Latitude Longitude Altitude Speed Heading
2026-04-18 09:59 41.26773 28.73447 339 ft 0 kts 179°
2026-04-18 10:04 41.26782 28.73447 339 ft 2 kts 180°
2026-04-18 10:04 41.26797 28.73447 339 ft 2 kts 179°
2026-04-18 10:04 41.26812 28.73447 339 ft 2 kts 191°
2026-04-18 10:05 41.26826 28.73453 339 ft 2 kts 207°
2026-04-18 10:05 41.26838 28.73464 339 ft 2 kts 221°
2026-04-18 10:05 41.26849 28.73478 339 ft 2 kts 236°
2026-04-18 10:05 41.26855 28.73494 339 ft 2 kts 249°
2026-04-18 10:06 41.26860 28.73513 339 ft 2 kts 263°
2026-04-18 10:06 41.26860 28.73525 339 ft 1 kts 271°
2026-04-18 10:06 41.26860 28.73528 339 ft 0 kts 271°
2026-04-18 10:09 41.26860 28.73526 339 ft 0 kts 270°
2026-04-18 10:09 41.26859 28.73437 339 ft 22 kts 269°
2026-04-18 10:09 41.26857 28.73227 339 ft 23 kts 269°
2026-04-18 10:10 41.26851 28.73040 339 ft 9 kts 248°
2026-04-18 10:10 41.26797 28.73000 339 ft 9 kts 179°
2026-04-18 10:10 41.26755 28.73000 339 ft 0 kts 191°
2026-04-18 10:10 41.26725 28.72974 339 ft 4 kts 231°
2026-04-18 10:11 41.26711 28.72923 339 ft 8 kts 258°
2026-04-18 10:11 41.26706 28.72762 339 ft 33 kts 269°
2026-04-18 10:11 41.26703 28.72581 339 ft 7 kts 269°
2026-04-18 10:11 41.26712 28.72535 339 ft 5 kts 305°
2026-04-18 10:12 41.26741 28.72517 339 ft 5 kts 349°
2026-04-18 10:12 41.26799 28.72514 339 ft 30 kts 359°
2026-04-18 10:12 41.27070 28.72508 339 ft 48 kts 359°
2026-04-18 10:12 41.27673 28.72495 339 ft 127 kts 360°
2026-04-18 10:13 41.28786 28.72473 506 ft 183 kts 360°
2026-04-18 10:13 41.30075 28.72452 1538 ft 192 kts
2026-04-18 10:13 41.31426 28.72464 2502 ft 206 kts
2026-04-18 10:13 41.32879 28.72517 3249 ft 217 kts
2026-04-18 10:14 41.34454 28.72588 3893 ft 234 kts
2026-04-18 10:14 41.36100 28.72319 4649 ft 252 kts 340°
2026-04-18 10:14 41.37472 28.70883 5670 ft 263 kts 312°
2026-04-18 10:14 41.38200 28.68637 6646 ft 278 kts 283°
2026-04-18 10:15 41.38219 28.66036 7604 ft 286 kts 273°
2026-04-18 10:15 41.38157 28.63405 8516 ft 290 kts 273°
2026-04-18 10:15 41.38092 28.60712 9460 ft 294 kts 269°
2026-04-18 10:15 41.37522 28.58070 10346 ft 306 kts 242°
2026-04-18 10:16 41.36076 28.55979 11033 ft 322 kts 214°
2026-04-18 10:16 41.33940 28.54934 11585 ft 338 kts 185°
2026-04-18 10:16 41.31568 28.54962 12139 ft 351 kts 176°
2026-04-18 10:16 41.29068 28.55248 12574 ft 368 kts 167°
2026-04-18 10:17 41.26629 28.56415 13002 ft 382 kts 153°
2026-04-18 10:17 41.24220 28.58019 13419 ft 397 kts 151°
2026-04-18 10:17 41.21716 28.59723 14033 ft 406 kts 152°
2026-04-18 10:17 41.19207 28.61379 14771 ft 410 kts 153°
2026-04-18 10:18 41.16604 28.63042 15522 ft 414 kts 154°
2026-04-18 10:18 41.13999 28.64669 16242 ft 417 kts 154°
2026-04-18 10:18 41.11349 28.66299 16950 ft 421 kts 155°
2026-04-18 10:18 41.08691 28.67920 17636 ft 424 kts 155°
2026-04-18 10:19 41.05970 28.69569 18309 ft 428 kts 156°
2026-04-18 10:19 41.03259 28.71208 18976 ft 431 kts 156°
2026-04-18 10:19 41.00526 28.72856 19649 ft 433 kts 156°
2026-04-18 10:19 40.97786 28.74507 20316 ft 436 kts 156°
2026-04-18 10:20 40.95033 28.76161 20976 ft 437 kts 157°
2026-04-18 10:20 40.92242 28.77838 21619 ft 440 kts 157°
2026-04-18 10:20 40.89438 28.79521 22231 ft 442 kts 157°
2026-04-18 10:20 40.86642 28.81189 22781 ft 444 kts 157°
2026-04-18 10:21 40.83801 28.82882 23311 ft 446 kts 157°
2026-04-18 10:21 40.80980 28.84564 23819 ft 448 kts 158°
2026-04-18 10:21 40.78134 28.86260 24311 ft 451 kts 158°
2026-04-18 10:21 40.75073 28.88085 24792 ft 454 kts 158°
2026-04-18 10:22 40.72032 28.89897 25256 ft 456 kts 157°
2026-04-18 10:22 40.69085 28.91651 25675 ft 459 kts 157°
2026-04-18 10:22 40.66156 28.93396 26059 ft 462 kts 157°
2026-04-18 10:22 40.63219 28.95144 26452 ft 465 kts 157°
2026-04-18 10:23 40.60303 28.96878 26840 ft 467 kts 157°
2026-04-18 10:23 40.57314 28.98653 27201 ft 470 kts 157°
2026-04-18 10:23 40.54346 29.00414 27540 ft 472 kts 157°
2026-04-18 10:23 40.51354 29.02188 27880 ft 474 kts 157°
2026-04-18 10:24 40.48331 29.03978 28224 ft 477 kts 157°
2026-04-18 10:24 40.45303 29.05769 28525 ft 479 kts 157°
2026-04-18 10:24 40.42278 29.07558 28821 ft 481 kts 157°
2026-04-18 10:24 40.39185 29.09386 29119 ft 484 kts 157°
2026-04-18 10:25 40.36140 29.11182 29418 ft 485 kts 157°
2026-04-18 10:25 40.33043 29.13007 29686 ft 488 kts 157°
2026-04-18 10:25 40.29961 29.14821 29936 ft 490 kts 157°
2026-04-18 10:25 40.26836 29.16661 30179 ft 492 kts 157°
2026-04-18 10:26 40.23730 29.18486 30530 ft 492 kts 157°
2026-04-18 10:26 40.20599 29.20325 30922 ft 490 kts 157°
2026-04-18 10:26 40.17469 29.22164 31281 ft 490 kts 157°
2026-04-18 10:26 40.14377 29.23976 31583 ft 491 kts 157°
2026-04-18 10:27 40.11266 29.25798 31877 ft 491 kts 157°
2026-04-18 10:27 40.08143 29.27624 32174 ft 492 kts 157°
2026-04-18 10:27 40.05022 29.29450 32480 ft 492 kts 157°
2026-04-18 10:27 40.01889 29.31281 32782 ft 493 kts 157°
2026-04-18 10:28 39.98779 29.33097 33071 ft 493 kts 157°
2026-04-18 10:28 39.95622 29.34939 33370 ft 493 kts 157°
2026-04-18 10:28 39.92508 29.36752 33667 ft 493 kts 157°
2026-04-18 10:28 39.89352 29.38574 33960 ft 493 kts 158°
2026-04-18 10:29 39.86169 29.40331 34220 ft 494 kts 159°
2026-04-18 10:29 39.83013 29.42044 34476 ft 495 kts 159°
2026-04-18 10:29 39.79837 29.43768 34685 ft 495 kts 158°
2026-04-18 10:29 39.76665 29.45500 34897 ft 495 kts 158°
2026-04-18 10:30 39.73477 29.47248 35106 ft 494 kts 158°
2026-04-18 10:30 39.70307 29.48976 35318 ft 493 kts 158°
2026-04-18 10:30 39.67125 29.50728 35518 ft 493 kts 158°
2026-04-18 10:30 39.63977 29.52466 35695 ft 493 kts 159°
2026-04-18 10:31 39.60755 29.54141 35907 ft 492 kts 160°
2026-04-18 10:31 39.57565 29.55722 36151 ft 492 kts 160°
2026-04-18 10:31 39.54370 29.57290 36424 ft 491 kts 160°
2026-04-18 10:31 39.51147 29.58877 36681 ft 491 kts 160°
2026-04-18 10:32 39.47980 29.60442 36927 ft 491 kts 160°
2026-04-18 10:32 39.44801 29.62017 37161 ft 491 kts 160°
2026-04-18 10:32 39.41605 29.63605 37405 ft 491 kts 160°
2026-04-18 10:32 39.38369 29.65211 37645 ft 490 kts 161°
2026-04-18 10:33 39.35213 29.66791 37883 ft 489 kts 161°
2026-04-18 10:33 39.32046 29.68381 38105 ft 489 kts 161°
2026-04-18 10:33 39.28895 29.69955 38289 ft 489 kts 161°
2026-04-18 10:33 39.25709 29.71541 38477 ft 488 kts 161°
2026-04-18 10:34 39.22517 29.73123 38666 ft 488 kts 161°
2026-04-18 10:34 39.19343 29.74695 38850 ft 488 kts 161°
2026-04-18 10:34 39.16208 29.76243 39019 ft 488 kts 161°
2026-04-18 10:34 39.13041 29.77807 39160 ft 489 kts 162°
2026-04-18 10:35 39.09829 29.79389 39296 ft 490 kts 161°
2026-04-18 10:35 39.06676 29.80941 39432 ft 491 kts 161°
2026-04-18 10:35 39.03447 29.82531 39543 ft 491 kts 162°
2026-04-18 10:36 38.97069 29.85667 39735 ft 494 kts 162°
2026-04-18 10:36 38.93835 29.87256 39841 ft 495 kts 162°
2026-04-18 10:36 38.90620 29.88831 39954 ft 495 kts 162°
2026-04-18 10:36 38.87397 29.90399 40071 ft 495 kts 162°
2026-04-18 10:37 38.84128 29.91946 40193 ft 496 kts 162°
2026-04-18 10:37 38.77653 29.94996 40386 ft 497 kts 162°
2026-04-18 10:38 38.71183 29.98056 40567 ft 498 kts 162°
2026-04-18 10:38 38.64674 30.01139 40745 ft 499 kts 162°
2026-04-18 10:39 38.58137 30.04231 40773 ft 500 kts 162°
2026-04-18 10:39 38.51641 30.07299 40782 ft 500 kts 162°
2026-04-18 10:40 38.45130 30.10374 40778 ft 500 kts 163°
2026-04-18 10:40 38.38624 30.13440 40776 ft 500 kts 162°
2026-04-18 10:41 38.32082 30.16360 40743 ft 496 kts 171°
2026-04-18 10:41 38.25465 30.18697 40754 ft 503 kts 151°
2026-04-18 10:41 38.22750 30.21539 40760 ft 507 kts 133°
2026-04-18 10:42 38.20717 30.25122 40779 ft 508 kts 124°
2026-04-18 10:42 38.17003 30.32747 40774 ft 508 kts 125°
2026-04-18 10:43 38.13022 30.40163 40771 ft 507 kts 127°
2026-04-18 10:43 38.08904 30.47344 40775 ft 506 kts 128°
2026-04-18 10:44 38.04731 30.54504 40775 ft 506 kts 128°
2026-04-18 10:44 38.00556 30.61658 40777 ft 506 kts 128°
2026-04-18 10:45 37.96352 30.68849 40781 ft 507 kts 129°
2026-04-18 10:45 37.92192 30.75972 40771 ft 507 kts 129°
2026-04-18 10:46 37.87956 30.83184 40769 ft 507 kts 129°
2026-04-18 10:46 37.83751 30.90285 40772 ft 507 kts 129°
2026-04-18 10:47 37.79532 30.97425 40771 ft 508 kts 129°
2026-04-18 10:47 37.75298 31.04594 40761 ft 508 kts 129°
2026-04-18 10:48 37.71067 31.11746 40768 ft 508 kts 129°
2026-04-18 10:48 37.66840 31.18878 40769 ft 508 kts 129°
2026-04-18 10:49 37.62577 31.26056 40767 ft 508 kts 129°
2026-04-18 10:49 37.58358 31.33141 40767 ft 509 kts 129°
2026-04-18 10:50 37.54090 31.40299 40762 ft 509 kts 129°
2026-04-18 10:50 37.49829 31.47430 40766 ft 509 kts 129°
2026-04-18 10:51 37.45589 31.54514 40764 ft 509 kts 129°
2026-04-18 10:51 37.41352 31.61585 40769 ft 510 kts 129°
2026-04-18 10:52 37.37074 31.68715 40767 ft 509 kts 130°
2026-04-18 10:52 37.32793 31.75812 40770 ft 509 kts 130°
2026-04-18 10:53 37.28514 31.82867 40775 ft 509 kts 130°
2026-04-18 10:53 37.24234 31.89916 40773 ft 509 kts 131°
2026-04-18 10:54 37.19933 31.96989 40770 ft 510 kts 131°
2026-04-18 10:54 37.15649 32.04017 40757 ft 510 kts 131°
2026-04-18 10:55 37.11323 32.11104 40751 ft 510 kts 131°
2026-04-18 10:55 37.07024 32.18148 40748 ft 510 kts 131°
2026-04-18 10:55 37.04862 32.21675 40510 ft 512 kts 131°
2026-04-18 10:56 37.02692 32.25203 39959 ft 510 kts 131°
2026-04-18 10:56 37.00548 32.28690 39359 ft 508 kts 130°
2026-04-18 10:56 36.98370 32.32231 38784 ft 505 kts 130°
2026-04-18 10:56 36.96236 32.35698 38231 ft 502 kts 130°
2026-04-18 10:57 36.94177 32.39181 37718 ft 502 kts 126°
2026-04-18 10:57 36.92374 32.42884 37213 ft 501 kts 120°
2026-04-18 10:57 36.90879 32.46789 36684 ft 502 kts 114°
2026-04-18 10:57 36.89697 32.50899 36095 ft 504 kts 108°
2026-04-18 10:58 36.88838 32.55174 35404 ft 507 kts 102°
2026-04-18 10:58 36.88336 32.59503 34777 ft 508 kts 96°
2026-04-18 10:58 36.88139 32.63876 34201 ft 507 kts 93°
2026-04-18 10:58 36.88027 32.68223 33614 ft 506 kts 92°
2026-04-18 10:59 36.87929 32.72638 33068 ft 506 kts 92°
2026-04-18 10:59 36.87825 32.76997 32494 ft 506 kts 92°
2026-04-18 10:59 36.87712 32.81332 31952 ft 505 kts 92°
2026-04-18 10:59 36.87590 32.85706 31368 ft 506 kts 92°
2026-04-18 11:00 36.87462 32.90053 30677 ft 505 kts 92°
2026-04-18 11:00 36.87333 32.94392 29851 ft 503 kts 92°
2026-04-18 11:00 36.87205 32.98721 29090 ft 499 kts 92°
2026-04-18 11:00 36.87077 33.03010 28396 ft 494 kts 92°
2026-04-18 11:01 36.86948 33.07251 27935 ft 485 kts 92°
2026-04-18 11:01 36.86819 33.11447 27344 ft 481 kts 92°
2026-04-18 11:01 36.86693 33.15574 26767 ft 476 kts 92°
2026-04-18 11:02 36.86433 33.23669 25746 ft 465 kts 92°
2026-04-18 11:02 36.86326 33.27695 25253 ft 459 kts 91°
2026-04-18 11:02 36.86366 33.31641 24787 ft 454 kts 88°
2026-04-18 11:02 36.86535 33.35548 24312 ft 449 kts 87°
2026-04-18 11:03 36.86726 33.39388 23844 ft 444 kts 86°
2026-04-18 11:03 36.86920 33.43209 23394 ft 439 kts 87°
2026-04-18 11:03 36.87110 33.46974 22945 ft 435 kts 87°
2026-04-18 11:03 36.87295 33.50683 22489 ft 431 kts 87°
2026-04-18 11:04 36.87479 33.54409 22035 ft 426 kts 87°
2026-04-18 11:04 36.87659 33.58054 21579 ft 422 kts 87°
2026-04-18 11:04 36.87835 33.61689 21115 ft 419 kts 87°
2026-04-18 11:04 36.88010 33.65288 20656 ft 416 kts 88°
2026-04-18 11:05 36.88181 33.68875 20203 ft 412 kts 88°
2026-04-18 11:05 36.88351 33.72452 19743 ft 410 kts 88°
2026-04-18 11:05 36.88517 33.75978 19298 ft 406 kts 88°
2026-04-18 11:05 36.88681 33.79493 18845 ft 404 kts 88°
2026-04-18 11:06 36.88842 33.82920 18404 ft 401 kts 88°
2026-04-18 11:06 36.89003 33.86385 17957 ft 398 kts 88°
2026-04-18 11:06 36.89164 33.89851 17507 ft 396 kts 88°
2026-04-18 11:06 36.89319 33.93240 17073 ft 393 kts 88°
2026-04-18 11:07 36.89474 33.96627 16643 ft 391 kts 89°
2026-04-18 11:07 36.89628 34.00011 16206 ft 389 kts 89°
2026-04-18 11:07 36.89779 34.03345 15759 ft 386 kts 89°
2026-04-18 11:07 36.89928 34.06663 15323 ft 383 kts 89°
2026-04-18 11:08 36.90073 34.09940 14896 ft 381 kts 89°
2026-04-18 11:08 36.90220 34.13248 14459 ft 378 kts 90°
2026-04-18 11:08 36.90361 34.16492 14032 ft 375 kts 89°
2026-04-18 11:08 36.90505 34.19759 13623 ft 372 kts 90°
2026-04-18 11:09 36.90643 34.22916 13214 ft 369 kts 90°
2026-04-18 11:09 36.90780 34.26093 12797 ft 366 kts 90°
2026-04-18 11:09 36.90918 34.29292 12351 ft 364 kts 90°
2026-04-18 11:09 36.91051 34.32424 11937 ft 361 kts 90°
2026-04-18 11:10 36.91181 34.35529 11551 ft 357 kts 90°
2026-04-18 11:10 36.91329 34.38584 11146 ft 354 kts 88°
2026-04-18 11:10 36.91627 34.41621 10716 ft 353 kts 83°
2026-04-18 11:10 36.92108 34.44593 10525 ft 342 kts 79°
2026-04-18 11:11 36.92683 34.47404 10414 ft 329 kts 78°
2026-04-18 11:11 36.93250 34.50109 10269 ft 317 kts 78°
2026-04-18 11:11 36.93803 34.52744 10152 ft 306 kts 78°
2026-04-18 11:11 36.94328 34.55259 10039 ft 294 kts 79°
2026-04-18 11:12 36.94833 34.57688 9948 ft 283 kts 79°
2026-04-18 11:12 36.95314 34.60014 9873 ft 273 kts 79°
2026-04-18 11:12 36.95786 34.62295 9809 ft 269 kts 79°
2026-04-18 11:12 36.96255 34.64573 9550 ft 269 kts 79°
2026-04-18 11:13 36.96722 34.66834 9292 ft 268 kts 79°
2026-04-18 11:13 36.97188 34.69115 9023 ft 267 kts 79°
2026-04-18 11:13 36.97657 34.71416 8742 ft 266 kts 79°
2026-04-18 11:13 36.98114 34.73652 8486 ft 264 kts 79°
2026-04-18 11:14 36.98570 34.75876 8237 ft 263 kts 79°
2026-04-18 11:14 36.99021 34.78086 7978 ft 268 kts 79°
2026-04-18 11:14 36.99479 34.80330 7736 ft 266 kts 79°
2026-04-18 11:14 36.99936 34.82576 7458 ft 264 kts 78°
2026-04-18 11:15 37.00392 34.84815 7175 ft 270 kts 78°
2026-04-18 11:15 37.00851 34.87063 6935 ft 267 kts 78°
2026-04-18 11:15 37.01310 34.89316 6686 ft 264 kts 78°
2026-04-18 11:15 37.01761 34.91531 6467 ft 262 kts 78°
2026-04-18 11:16 37.02206 34.93731 6208 ft 262 kts 78°
2026-04-18 11:16 37.02652 34.95923 5968 ft 261 kts 78°
2026-04-18 11:16 37.03093 34.98102 5743 ft 258 kts 78°
2026-04-18 11:16 37.03569 35.00232 5645 ft 251 kts 69°
2026-04-18 11:17 37.04594 35.01982 5504 ft 248 kts 41°
2026-04-18 11:17 37.06022 35.03157 5336 ft 243 kts 32°
2026-04-18 11:17 37.07454 35.04200 5191 ft 238 kts 32°
2026-04-18 11:17 37.08892 35.05243 4819 ft 242 kts 32°
2026-04-18 11:18 37.10373 35.06338 4451 ft 247 kts 33°
2026-04-18 11:18 37.11819 35.07430 4309 ft 240 kts 33°
2026-04-18 11:18 37.13203 35.08510 4367 ft 223 kts 40°
2026-04-18 11:18 37.14015 35.09988 4415 ft 198 kts 84°
2026-04-18 11:19 37.13821 35.11599 4308 ft 190 kts 120°
2026-04-18 11:19 37.13102 35.12996 4186 ft 192 kts 124°
2026-04-18 11:19 37.12355 35.14395 3995 ft 194 kts 123°
2026-04-18 11:19 37.11624 35.15818 3839 ft 193 kts 122°
2026-04-18 11:20 37.10907 35.17238 3640 ft 190 kts 122°
2026-04-18 11:20 37.10217 35.18624 3472 ft 191 kts 122°
2026-04-18 11:20 37.09511 35.20051 3305 ft 191 kts 122°
2026-04-18 11:20 37.08772 35.21449 3061 ft 193 kts 133°
2026-04-18 11:21 37.07606 35.22214 2920 ft 188 kts 174°
2026-04-18 11:21 37.06411 35.21850 2951 ft 176 kts 216°
2026-04-18 11:21 37.05542 35.20780 3012 ft 173 kts 226°
2026-04-18 11:21 37.04794 35.19667 3023 ft 164 kts 225°
2026-04-18 11:22 37.03990 35.18689 2992 ft 158 kts 217°
2026-04-18 11:22 37.03164 35.17888 2840 ft 146 kts 212°
2026-04-18 11:22 37.02337 35.17170 2649 ft 144 kts 210°
2026-04-18 11:22 37.01494 35.16490 2462 ft 144 kts 208°
2026-04-18 11:23 37.00642 35.15830 2276 ft 144 kts 208°
2026-04-18 11:23 36.99793 35.15185 2094 ft 143 kts 208°
2026-04-18 11:23 36.98927 35.14533 1905 ft 143 kts 207°
2026-04-18 11:23 36.98078 35.13893 1720 ft 143 kts 208°
2026-04-18 11:24 36.97227 35.13250 1535 ft 143 kts 208°
2026-04-18 11:24 36.96373 35.12603 1350 ft 142 kts 208°
2026-04-18 11:24 36.95530 35.11965 1171 ft 141 kts 208°
2026-04-18 11:24 36.94680 35.11319 990 ft 141 kts 208°
2026-04-18 11:25 36.93838 35.10685 790 ft 142 kts 208°
2026-04-18 11:25 36.92997 35.10043 631 ft 140 kts 208°
2026-04-18 11:25 36.92177 35.09420 430 ft 138 kts 208°
2026-04-18 11:25 36.91347 35.08792 239 ft 138 kts 208°
2026-04-18 11:26 36.90530 35.08163 83 ft 139 kts 208°
2026-04-18 11:26 36.89784 35.07592 37 ft 81 kts 212°
2026-04-18 11:26 36.89629 35.07455 39 ft 3 kts 231°
2026-04-18 11:26 36.89559 35.07406 40 ft 31 kts 201°
2026-04-18 11:27 36.89490 35.07365 41 ft 1 kts 229°
2026-04-18 11:27 36.89415 35.07283 42 ft 12 kts 205°
2026-04-18 11:27 36.89379 35.07256 42 ft 0 kts 220°
2026-04-18 11:27 36.89332 35.07192 39 ft 23 kts 236°
2026-04-18 11:28 36.89309 35.07098 35 ft 1 kts 284°
2026-04-18 11:28 36.89383 35.06962 34 ft 20 kts 324°
2026-04-18 11:28 36.89419 35.06914 34 ft 5 kts 296°
2026-04-18 11:28 36.89487 35.06759 35 ft 6 kts 301°
2026-04-18 11:29 36.89516 35.06704 36 ft 6 kts 309°
2026-04-18 11:29 36.89521 35.06698 36 ft 0 kts 314°
2026-04-18 11:29 36.89533 35.06684 36 ft 3 kts 318°
2026-04-18 11:29 36.89558 35.06672 36 ft 12 kts 352°
2026-04-18 11:30 36.89624 35.06702 37 ft 0 kts 32°
2026-04-18 11:30 36.89762 35.06810 43 ft 20 kts 33°
2026-04-18 11:30 36.89931 35.06936 41 ft 24 kts 28°
2026-04-18 11:30 36.89996 35.06979 39 ft 3 kts 20°
2026-04-18 11:31 36.90033 35.06997 39 ft 7 kts 20°
2026-04-18 11:31 36.90090 35.07024 38 ft 0 kts 21°
2026-04-18 11:31 36.90091 35.07024 38 ft 0 kts 22°